User: anonymous
Location: Oshawa
(43.9000°N, 78.8670°W)
Time: 11:28:25
(UTC-04:00)
Language:

CZ-4C R/B - Orbit

View from above orbital plane
View from above orbital plane
View from above satellite
View from above satellite

Ground track
Ground track

The orbit data is extracted from the following two-line orbital elements,

1 32290U 07055B   14106.22871064  .00006499  00000-0  26434-3 0  8332
2 32290 097.5792 180.4189 0088939 265.6983 158.8937 15.21264682354857
Epoch (UTC): 16 April 2014 05:29:20
Eccentricity: 0.0088939
inclination: 97.5792°
perigee height: 441 km
apogee height: 563 km
right ascension of ascending node: 180.4189°
argument of perigee: 265.6983°
revolutions per day: 15.21264682
mean anomaly at epoch: 158.8937°
orbit number at epoch: 35485

The dashed part of the orbit path shows where the satellite is in the earth's shadow,  

DLR